Weather History for St. Petersburg, FL

Change the Weather History Date:

Saturday, November 24, 2012

  Actual Average Record
Temperature  
Mean Temperature 65 °F -  
Max Temperature 70 °F 75 °F 87 °F (1985)
Min Temperature 60 °F 60 °F 35 °F (1970)
Growing Degree Days 15 (Base 50)    
Moisture  
Dew Point 54 °F    
Average Humidity 71    
Maximum Humidity 87    
Minimum Humidity 57    
Precipitation  
Precipitation 0.00 in - - ()
Sea Level Pressure  
Sea Level Pressure 30.07 in    
Wind  
Wind Speed 4 mph (NNW)    
Max Wind Speed 12 mph    
Max Gust Speed 20 mph    
Visibility 10 miles    
Events      
Averages and records for this station are not official NWS values.
T = Trace of Precipitation, MM = Missing Value Source: NWS Daily Summary

Daily Weather History Graph

Daily Weather History Graph

Search for Another Location

Airport:

Trip Planner

Search our weather history database for the weather conditions in past years. The results will help you decide how hot, cold, wet, or windy it might be!

Date:

Astronomy

Nov. 24, 2012 Rise Set
Actual Time 6:59 AM EST 5:35 PM EST
Civil Twilight 6:33 AM EST 6:00 PM EST
Nautical Twilight 6:05 AM EST 6:29 PM EST
Astronomical Twilight 5:37 AM EST 6:57 PM EST
Moon 3:06 PM EST (11/24) 3:29 AM EST (11/24)
Length of Visible Light 11h 26m
Length of Day
10h 36m
Waxing Gibbous, 87% of the Moon is Illuminated
Nov 24
Waxing Gibbous
Nov 28
Full
Dec 6
Last Quarter
Dec 13
New
Dec 20
First Quarter

Hourly Weather History & Observations

Time (EST) Temp. Dew Point Humidity Pressure Visibility Wind Dir Wind Speed Gust Speed Precip Events Conditions
12:53 AM 60.1 °F 55.0 °F 83% 30.09 in 10.0 mi Calm Calm - N/A   Clear
1:53 AM 60.1 °F 55.9 °F 86% 30.08 in 10.0 mi SW 3.5 mph - N/A   Clear
2:53 AM 63.0 °F 59.0 °F 87% 30.07 in 9.0 mi Calm Calm - N/A   Clear
3:53 AM 63.0 °F 57.9 °F 84% 30.06 in 10.0 mi Calm Calm - N/A   Clear
4:53 AM 63.0 °F 57.9 °F 84% 30.06 in 10.0 mi Calm Calm - N/A   Clear
5:53 AM 63.0 °F 57.9 °F 84% 30.07 in 10.0 mi Calm Calm - N/A   Clear
6:53 AM 62.1 °F 57.9 °F 86% 30.08 in 10.0 mi Calm Calm - N/A   Clear
7:53 AM 64.0 °F 57.0 °F 78% 30.10 in 10.0 mi North 3.5 mph - N/A   Clear
8:53 AM 66.0 °F 55.9 °F 70% 30.11 in 10.0 mi NNW 5.8 mph - N/A   Clear
9:53 AM 69.1 °F 57.0 °F 65% 30.12 in 10.0 mi NNW 3.5 mph - N/A   Partly Cloudy
10:53 AM 70.0 °F 59.0 °F 68% 30.10 in 10.0 mi WNW 10.4 mph 16.1 mph N/A   Scattered Clouds
11:53 AM 69.1 °F 57.0 °F 65% 30.08 in 10.0 mi NNW 9.2 mph - N/A   Partly Cloudy
12:53 PM 69.1 °F 55.9 °F 63% 30.05 in 10.0 mi NNW 8.1 mph - N/A   Clear
1:53 PM 70.0 °F 55.9 °F 61% 30.03 in 10.0 mi NNW 9.2 mph - N/A   Clear
2:53 PM 69.1 °F 53.1 °F 57% 30.02 in 10.0 mi NW 11.5 mph 19.6 mph N/A   Clear
3:53 PM 68.0 °F 53.1 °F 59% 30.02 in 10.0 mi NW 11.5 mph - N/A   Clear
4:53 PM 66.0 °F 51.1 °F 59% 30.04 in 10.0 mi NNW 9.2 mph - N/A   Clear
5:53 PM 63.0 °F 48.0 °F 58% 30.06 in 10.0 mi NNW 9.2 mph - N/A   Clear
6:53 PM 62.1 °F 48.9 °F 62% 30.06 in 10.0 mi North 5.8 mph - N/A   Clear
7:53 PM 61.0 °F 50.0 °F 67% 30.08 in 10.0 mi North 5.8 mph - N/A   Clear
8:53 PM 60.1 °F 48.9 °F 67% 30.08 in 10.0 mi North 8.1 mph - N/A   Clear
9:53 PM 60.1 °F 50.0 °F 69% 30.10 in 10.0 mi North 6.9 mph - N/A   Clear
10:53 PM 60.1 °F 48.9 °F 67% 30.11 in 10.0 mi North 3.5 mph - N/A   Clear
11:53 PM 60.1 °F 50.0 °F 69% 30.10 in 10.0 mi North 5.8 mph - N/A   Clear